Weather History for KVCT - May, 2014

Change the Weather History Date:

Wednesday, May 14, 2014

  Actual Average Record
Temperature  
Mean Temperature 67 °F 76 °F  
Max Temperature 78 °F 86 °F 94 °F (1925)
Min Temperature 55 °F 67 °F 51 °F (1971)
Degree Days  
Heating Degree Days 0 0  
Month to date heating degree days 3 0  
Since 1 July heating degree days 1493 1248  
Cooling Degree Days 2 12  
Month to date cooling degree days 125 142  
Year to date cooling degree days 438 431  
Growing Degree Days 18 (Base 50)    
Moisture  
Dew Point 51 °F    
Average Humidity 58    
Maximum Humidity 87    
Minimum Humidity 29    
Precipitation  
Precipitation 0.02 in 0.17 in 1.87 in (1992)
Month to date precipitation 2.35 2.20  
Year to date precipitation 6.01 12.39  
Snow  
Snow 0.00 in - - ()
Month to date snowfall 0.0  
Since 1 July snowfall T  
Snow Depth 0.00 in    
Sea Level Pressure  
Sea Level Pressure 30.19 in    
Wind  
Wind Speed 14 mph (North)    
Max Wind Speed 26 mph    
Max Gust Speed 36 mph    
Visibility 10 miles    
Events Rain    
T = Trace of Precipitation, MM = Missing Value Source: NWS Daily Summary

Daily Weather History Graph

Daily Weather History Graph

Search for Another Location

Airport or City:

Trip Planner

Search our weather history database for the weather conditions in past years. The results will help you decide how hot, cold, wet, or windy it might be!

Date:

Astronomy

May. 14, 2014 Rise Set
Actual Time 6:37 AM CDT 8:11 PM CDT
Civil Twilight 6:11 AM CDT 8:37 PM CDT
Nautical Twilight 5:40 AM CDT 9:08 PM CDT
Astronomical Twilight 5:08 AM CDT 9:40 PM CDT
Moon 8:20 PM CDT (5/14) 6:32 AM CDT (5/14)
Length of Visible Light 14h 25m
Length of Day
13h 34m
Full, 100% of the Moon is Illuminated
May 14
Full
May 14
Full
May 21
Last Quarter
May 28
New
Jun 5
First Quarter

Hourly Weather History & Observations

Time (CDT) Temp. Dew Point Humidity Pressure Visibility Wind Dir Wind Speed Gust Speed Precip Events Conditions
12:42 AM 61.0 °F 57.0 °F 87% 30.16 in 10.0 mi North 13.8 mph - 0.00 in   Overcast
12:51 AM 61.0 °F 57.0 °F 87% 30.16 in 10.0 mi NNW 13.8 mph - 0.00 in   Overcast
1:14 AM 61.0 °F 57.0 °F 87% 30.16 in 10.0 mi NNW 12.7 mph - N/A   Overcast
1:51 AM 61.0 °F 55.9 °F 83% 30.15 in 10.0 mi North 13.8 mph - N/A   Overcast
2:51 AM 59.0 °F 55.9 °F 90% 30.15 in 10.0 mi North 15.0 mph 26.5 mph 0.00 in Rain Light Rain
3:51 AM 59.0 °F 55.9 °F 90% 30.15 in 10.0 mi North 15.0 mph - 0.02 in   Mostly Cloudy
4:23 AM 59.0 °F 55.9 °F 90% 30.17 in 10.0 mi NNW 13.8 mph - N/A   Overcast
4:51 AM 59.0 °F 55.9 °F 90% 30.16 in 10.0 mi NNW 13.8 mph - 0.00 in   Overcast
5:10 AM 59.0 °F 55.0 °F 87% 30.17 in 10.0 mi NNW 13.8 mph 21.9 mph N/A   Overcast
5:51 AM 57.9 °F 54.0 °F 87% 30.17 in 10.0 mi North 17.3 mph 27.6 mph N/A   Overcast
6:19 AM 59.0 °F 54.0 °F 83% 30.18 in 10.0 mi North 16.1 mph 24.2 mph N/A   Overcast
6:51 AM 59.0 °F 53.1 °F 81% 30.19 in 10.0 mi North 13.8 mph - N/A   Overcast
7:51 AM 59.0 °F 53.1 °F 81% 30.21 in 10.0 mi NNW 12.7 mph - N/A   Overcast
8:44 AM 60.1 °F 53.1 °F 78% 30.24 in 10.0 mi NNW 16.1 mph 23.0 mph N/A   Overcast
8:51 AM 60.1 °F 53.1 °F 78% 30.24 in 10.0 mi NNW 18.4 mph - N/A   Mostly Cloudy
9:44 AM 63.0 °F 52.0 °F 67% 30.25 in 10.0 mi North 20.7 mph 27.6 mph N/A   Scattered Clouds
9:51 AM 64.4 °F 51.8 °F 64% 30.25 in 10.0 mi North 19.6 mph 26.5 mph N/A   Partly Cloudy
10:51 AM 64.9 °F 51.1 °F 61% 30.24 in 10.0 mi North 19.6 mph 28.8 mph N/A   Mostly Cloudy
11:51 AM 69.8 °F 51.8 °F 53% 30.25 in 10.0 mi North 16.1 mph 27.6 mph N/A   Scattered Clouds
12:51 PM 70.0 °F 48.0 °F 46% 30.23 in 10.0 mi NNW 21.9 mph 27.6 mph N/A   Mostly Cloudy
1:51 PM 73.9 °F 46.9 °F 38% 30.21 in 10.0 mi NNW 18.4 mph 27.6 mph N/A   Scattered Clouds
2:51 PM 75.9 °F 45.0 °F 33% 30.19 in 10.0 mi NNW 21.9 mph 32.2 mph N/A   Scattered Clouds
3:51 PM 77.0 °F 44.6 °F 32% 30.17 in 10.0 mi North 17.3 mph 25.3 mph N/A   Clear
4:51 PM 77.0 °F 44.1 °F 31% 30.15 in 10.0 mi NNW 17.3 mph 27.6 mph N/A   Clear
5:51 PM 75.9 °F 42.1 °F 30% 30.14 in 10.0 mi North 16.1 mph 29.9 mph N/A   Clear
6:51 PM 75.0 °F 41.0 °F 29% 30.14 in 10.0 mi North 21.9 mph 26.5 mph N/A   Clear
7:51 PM 71.1 °F 39.9 °F 32% 30.17 in 10.0 mi North 11.5 mph - N/A   Clear
8:51 PM 63.0 °F 44.1 °F 50% 30.20 in 10.0 mi North 8.1 mph - N/A   Clear
9:51 PM 60.8 °F 48.2 °F 63% 30.23 in 10.0 mi NE 4.6 mph - N/A   Clear
10:51 PM 59.0 °F 48.0 °F 67% 30.25 in 10.0 mi NE 4.6 mph - N/A   Clear
11:51 PM 57.0 °F 50.0 °F 77% 30.26 in 10.0 mi NE 4.6 mph - N/A   Clear